User: anonymous   Login
Location: Asheville, NC
(35.6000°N, 82.5500°W)
Time: 00:27:28
(UTC-04:00)
Language:

MOZHAYETS 4 - Orbit

View from above orbital plane
View from above orbital plane
View from above satellite
View from above satellite

Ground track
Ground track

The orbit data is extracted from the following two-line orbital elements,

1 27939U 03042A   18171.87690389  .00000074  00000-0  21759-4 0  9996
2 27939  97.9911 310.9157 0014030 133.1332  18.0978 14.66694200787359
Epoch (UTC): 20 June 2018 21:02:44
Eccentricity: 0.0014030
inclination: 97.9911°
perigee height: 662 km
apogee height: 681 km
right ascension of ascending node: 310.9157°
argument of perigee: 133.1332°
revolutions per day: 14.66694200
mean anomaly at epoch: 18.0978°
orbit number at epoch: 78735

The dashed part of the orbit path shows where the satellite is in the earth's shadow,  

DLR